Flag for Australia Weather past 2 weeks in Sydney, New South Wales, Australia

Now
55 °F

Passing clouds.


Feels Like: 52 °F
Forecast: 55 / 67 °F
Wind: 13 mph from West

Location: Sydney Airport

Current Time: Aug 31, 2014 at 5:22:25 AM

Latest Report: Aug 31, 2014 at 4:30 AM


Visibility: N/A

Pressure: 30.12 "Hg

Humidity: 77%

Dew point: 48 °F

Location of SydneyLocation

Historic Weather in Sydney — Graph

°F

Sydney temperature yesterday

Maximum temperature yesterday: 61 °F (at 1:00 PM)
Minimum temperature yesterday: 54 °F (at 9:00 AM)
Average temperature yesterday: 58 °F

Past Weeks' High & Low Weather Summary

 TemperatureHumidityPressure
High68 °F (Aug 25, 2:00 PM)100% (Aug 17, 12:00 AM)30.45 "Hg (Aug 17, 12:00 AM)
Low46 °F (Aug 16, 4:30 AM)49% (Aug 28, 2:00 PM)29.53 "Hg (Aug 18, 3:00 AM)
Average57 °F81%30.18 "Hg
* Reported Aug 16 3:00 AM — Aug 31 3:00 AM, Sydney, Weather by CustomWeather, © 2014

Note: Actual official high and low records may vary slightly from our data, if they occured in-between our weather recording intervals... More about our weather records

Advertising

Sydney weather history for previous 24 hours

 ConditionsComfort  
Time TempWeatherWind HumidityBarometerVisibility
3:00 AM
Aug 31
55 °FPassing clouds.9 mph82%30.12 "HgN/A
2:30 AM54 °FPassing clouds.9 mph88%30.12 "HgN/A
2:00 AM55 °FPassing clouds.9 mph82%30.12 "HgN/A
1:30 AM57 °FPassing clouds.13 mph82%30.12 "HgN/A
1:00 AM57 °FPassing clouds.12 mph82%30.15 "HgN/A
12:30 AM57 °FPassing clouds.15 mph82%30.15 "HgN/A
11:30 PM
Aug 30
57 °FPartly cloudy.13 mph88%30.15 "HgN/A
11:00 PM57 °FPartly cloudy.20 mph88%30.15 "Hg5 mi
10:00 PM57 °FPartly cloudy.17 mph82%30.15 "HgN/A
9:30 PM57 °FPartly cloudy.20 mph82%30.18 "HgN/A
9:00 PM57 °FPartly cloudy.21 mph88%30.18 "HgN/A
8:30 PM57 °FPartly cloudy.17 mph88%30.18 "HgN/A
8:00 PM59 °FPartly cloudy.20 mph77%30.18 "HgN/A
7:30 PM59 °FPartly cloudy.16 mph77%30.18 "HgN/A
7:00 PM59 °FPartly cloudy.18 mph77%30.15 "HgN/A
6:30 PM59 °FPartly cloudy.17 mph77%30.15 "HgN/A
6:00 PM59 °FScattered showers. Partly cloudy.17 mph82%30.15 "HgN/A
5:30 PM59 °FPartly cloudy.23 mph82%30.15 "Hg5 mi
5:00 PM59 °FPartly cloudy.20 mph82%30.15 "HgN/A
4:30 PM59 °FDrizzle. Broken clouds.21 mph88%30.15 "HgN/A
4:00 PM59 °FDrizzle. Broken clouds.24 mph82%30.15 "HgN/A
3:30 PM61 °FScattered showers. Partly sunny.25 mph77%30.15 "HgN/A
3:00 PM59 °FDrizzle. Broken clouds.21 mph82%30.15 "HgN/A
2:30 PM61 °FScattered showers. Broken clouds.22 mph77%30.15 "Hg5 mi
2:00 PM59 °FDrizzle. Broken clouds.25 mph82%30.15 "HgN/A
1:30 PM61 °FScattered showers. Broken clouds.23 mph77%30.18 "HgN/A
1:00 PM61 °FScattered showers. Broken clouds.24 mph77%30.18 "HgN/A
12:30 PM59 °FScattered showers. Broken clouds.23 mph88%30.18 "HgN/A
12:00 PM57 °FSprinkles. Partly sunny.22 mph94%30.18 "Hg4 mi
11:00 AM57 °FScattered showers. Broken clouds.23 mph88%30.21 "HgN/A
10:30 AM57 °FSprinkles. Broken clouds.26 mph88%30.21 "Hg4 mi
10:00 AM55 °FDrizzle. Broken clouds.25 mph94%30.21 "Hg4 mi
9:30 AM55 °FSprinkles. Partly sunny.22 mph88%30.21 "Hg2 mi
9:00 AM54 °FSprinkles. Broken clouds.20 mph94%30.21 "Hg2 mi
8:30 AM55 °FSprinkles. Partly sunny.24 mph88%30.21 "Hg3 mi
8:00 AM55 °FDrizzle. Broken clouds.24 mph82%30.21 "Hg5 mi
7:30 AM55 °FDrizzle. Broken clouds.24 mph82%30.21 "HgN/A
7:00 AM55 °FSprinkles. Broken clouds.22 mph82%30.21 "Hg4 mi
5:00 AM57 °FPassing clouds.26 mph77%30.18 "HgN/A
Weather by CustomWeather, © 2014

See weather overviewHow to use our weather pages